Williston, ND

12:23 PM CST on November 18, 2017 (GMT -0600)
Sloulin International

Weather History for KISN - September, 2013

Change the Weather History Date:

Monday, September 16, 2013

  Actual Average Record
Temperature  
Mean Temperature 65 °F 56 °F  
Max Temperature 79 °F 71 °F 96 °F (1998)
Min Temperature 50 °F 42 °F 23 °F (1973)
Degree Days  
Heating Degree Days 0 9  
Month to date heating degree days 17 102  
Since 1 July heating degree days 63 173  
Cooling Degree Days 0 1  
Month to date cooling degree days 68 23  
Year to date cooling degree days 395 452  
Growing Degree Days 14 (Base 50)    
Moisture  
Dew Point 50 °F    
Average Humidity 63    
Maximum Humidity 83    
Minimum Humidity 42    
Precipitation  
Precipitation 0.00 in 0.03 in 0.44 in (1934)
Month to date precipitation 1.32 0.58  
Year to date precipitation 17.21 11.70  
Snow  
Snow 0.00 in - - ()
Month to date snowfall 0.0  
Snow Depth 0.00 in    
Sea Level Pressure  
Sea Level Pressure 29.99 in    
Wind  
Wind Speed 10 mph (SSE)    
Max Wind Speed 23 mph    
Max Gust Speed 30 mph    
Visibility 10 miles    
Events      
T = Trace of Precipitation, MM = Missing Value Source: NWS Daily Summary

Daily Weather History Graph

Daily Weather History Graph

Search for Another Location

Airport or City:

Trip Planner

Search our weather history database for the weather conditions in past years. The results will help you decide how hot, cold, wet, or windy it might be!

Date:

Astronomy

Sep. 16, 2013 Rise Set
Actual Time 7:33 AM CDT 8:04 PM CDT
Civil Twilight 7:02 AM CDT 8:35 PM CDT
Nautical Twilight 6:24 AM CDT 9:12 PM CDT
Astronomical Twilight 5:46 AM CDT 9:51 PM CDT
Moon 6:23 PM CDT (9/16) 4:10 AM CDT (9/16)
Length of Visible Light 13h 33m
Length of Day
12h 30m
Waxing Gibbous, 90% of the Moon is Illuminated
Sep 16
Waxing Gibbous
Sep 19
Full
Sep 26
Last Quarter
Oct 4
New
Oct 11
First Quarter

Hourly Weather History & Observations

Time (CDT) Temp. Dew Point Humidity Pressure Visibility Wind Dir Wind Speed Gust Speed Precip Events Conditions
12:52 AM 50.0 °F 43.0 °F 77% 30.21 in 10.0 mi Calm Calm - N/A   Clear
1:52 AM 52.0 °F 45.0 °F 77% 30.19 in 10.0 mi SSE 4.6 mph - N/A   Clear
2:52 AM 52.0 °F 45.0 °F 77% 30.17 in 10.0 mi SSE 4.6 mph - N/A   Clear
3:52 AM 51.1 °F 45.0 °F 80% 30.14 in 10.0 mi SE 4.6 mph - N/A   Clear
4:52 AM 53.1 °F 46.0 °F 77% 30.13 in 10.0 mi SW 3.5 mph - N/A   Clear
5:52 AM 54.0 °F 46.9 °F 77% 30.11 in 10.0 mi SSE 11.5 mph - N/A   Clear
6:52 AM 53.1 °F 48.0 °F 83% 30.10 in 10.0 mi South 6.9 mph - N/A   Clear
7:52 AM 53.1 °F 48.9 °F 86% 30.10 in 10.0 mi South 8.1 mph - N/A   Clear
8:52 AM 55.9 °F 50.0 °F 80% 30.09 in 10.0 mi South 5.8 mph - N/A   Clear
9:52 AM 59.0 °F 51.1 °F 75% 30.07 in 10.0 mi SSE 15.0 mph - N/A   Clear
10:52 AM 63.0 °F 51.1 °F 65% 30.04 in 10.0 mi SSE 13.8 mph 19.6 mph N/A   Clear
11:52 AM 66.0 °F 52.0 °F 60% 30.02 in 10.0 mi SSE 17.3 mph 24.2 mph N/A   Clear
12:52 PM 69.1 °F 52.0 °F 54% 30.00 in 10.0 mi SSE 13.8 mph 27.6 mph N/A   Clear
1:52 PM 72.0 °F 52.0 °F 49% 29.96 in 10.0 mi South 13.8 mph 27.6 mph N/A   Clear
2:52 PM 75.0 °F 53.1 °F 46% 29.93 in 10.0 mi SSE 12.7 mph 24.2 mph N/A   Clear
3:52 PM 75.9 °F 54.0 °F 46% 29.89 in 10.0 mi SSE 12.7 mph 27.6 mph N/A   Clear
4:52 PM 78.1 °F 53.1 °F 42% 29.85 in 10.0 mi SSE 17.3 mph 23.0 mph N/A   Clear
5:52 PM 78.1 °F 53.1 °F 42% 29.83 in 10.0 mi SSE 17.3 mph 27.6 mph N/A   Clear
6:52 PM 77.0 °F 53.1 °F 43% 29.82 in 10.0 mi SSE 15.0 mph 26.5 mph N/A   Clear
7:52 PM 73.9 °F 54.0 °F 50% 29.80 in 10.0 mi SSE 10.4 mph 17.3 mph N/A   Clear
8:52 PM 71.1 °F 53.1 °F 53% 29.80 in 10.0 mi SSE 9.2 mph - N/A   Clear
9:52 PM 68.0 °F 53.1 °F 59% 29.81 in 10.0 mi SSE 4.6 mph - N/A   Clear
10:52 PM 66.0 °F 53.1 °F 63% 29.81 in 10.0 mi SSE 5.8 mph - N/A   Clear
11:52 PM 64.9 °F 53.1 °F 65% 29.80 in 10.0 mi SSE 9.2 mph - N/A   Clear